Time[GMT],salinity[psu](50m),sigma_t[kg/m^3](50m),conductivity[msiemens/cm](50m),temperature[C](50m)
2008-04-22 20:00,31.691,25.168,29.674,3.87
2008-04-22 21:00,31.698,25.179,29.621,3.80
2008-04-22 22:00,31.663,25.156,29.552,3.75
2008-04-22 23:00,31.651,25.135,29.649,3.88
2008-04-23 00:00,31.653,25.143,29.589,3.81
2008-04-23 01:00,31.643,25.115,29.758,4.02
2008-04-23 02:00,31.665,25.134,29.754,3.99
2008-04-23 03:00,31.696,25.169,29.694,3.89
2008-04-23 04:00,31.650,25.109,29.858,4.14
2008-04-23 05:00,31.603,25.064,29.883,4.22
2008-04-23 06:00,31.641,25.099,29.872,4.16
2008-04-23 07:00,31.652,25.111,29.862,4.14
2008-04-23 08:00,31.658,25.117,29.858,4.13
2008-04-23 09:00,31.665,25.137,29.734,3.97
2008-04-23 10:00,31.674,25.159,29.611,3.81
2008-04-23 11:00,31.661,25.139,29.685,3.91
2008-04-23 12:00,31.643,25.119,29.714,3.97
2008-04-23 13:00,31.655,25.131,29.708,3.95
2008-04-23 14:00,31.650,25.122,29.748,4.00
2008-04-23 15:00,31.670,25.132,29.813,4.06
2008-04-23 16:00,31.660,25.125,29.794,4.05
2008-04-23 17:00,31.656,25.113,29.869,4.14
2008-04-23 18:00,31.636,25.097,29.854,4.15
2008-04-23 19:00,31.670,25.126,29.870,4.13
2008-04-23 20:00,31.653,25.110,29.867,4.14
2008-04-23 21:00,31.656,25.117,29.839,4.11
2008-04-23 22:00,31.650,25.115,29.802,4.07
2008-04-23 23:00,31.661,25.132,29.750,3.99
2008-04-24 00:00,31.667,25.138,29.735,3.97
2008-04-24 01:00,31.656,25.125,29.762,4.01
2008-04-24 02:00,31.647,25.109,29.835,4.11
2008-04-24 03:00,31.639,25.104,29.822,4.10
2008-04-24 04:00,31.670,25.125,29.878,4.14
2008-04-24 05:00,31.622,25.073,29.946,4.27
2008-04-24 06:00,31.628,25.078,29.951,4.27
2008-04-24 07:00,31.648,25.097,29.948,4.25
2008-04-24 08:00,31.645,25.093,29.953,4.26
2008-04-24 09:00,31.650,25.107,29.880,4.16
2008-04-24 10:00,31.650,25.118,29.781,4.04
2008-04-24 11:00,31.661,25.146,29.622,3.84
2008-04-24 12:00,31.636,25.109,29.749,4.02
2008-04-24 13:00,31.626,25.088,29.851,4.15
2008-04-24 14:00,31.640,25.105,29.814,4.09
2008-04-24 15:00,31.633,25.090,29.888,4.19
2008-04-24 16:00,31.680,25.138,29.837,4.08
2008-04-24 17:00,31.611,25.061,29.964,4.31
2008-04-24 18:00,31.611,25.059,29.987,4.33
2008-04-24 19:00,31.629,25.071,30.012,4.35
2008-04-24 20:00,31.631,25.074,30.010,4.34
2008-04-24 21:00,31.641,25.085,29.990,4.31
2008-04-24 22:00,31.633,25.084,29.942,4.26
2008-04-24 23:00,31.639,25.099,29.863,4.15
2008-04-25 00:00,31.647,25.107,29.856,4.14
2008-04-25 01:00,31.640,25.101,29.847,4.13
2008-04-25 02:00,31.671,25.115,29.967,4.25
2008-04-25 03:00,31.655,25.094,30.017,4.32
2008-04-25 04:00,31.679,25.113,30.043,4.33
2008-04-25 05:00,31.601,25.040,30.069,4.44
2008-04-25 06:00,31.652,25.087,30.063,4.38
2008-04-25 07:00,31.654,25.087,30.070,4.39
2008-04-25 08:00,31.657,25.091,30.057,4.37
2008-04-25 09:00,31.657,25.092,30.055,4.37
2008-04-25 10:00,31.681,25.121,29.989,4.26
2008-04-25 11:00,31.679,25.144,29.782,4.01
2008-04-25 12:00,31.691,25.152,29.800,4.02
2008-04-25 13:00,31.655,25.107,29.918,4.20
2008-04-25 14:00,31.639,25.083,29.992,4.31
2008-04-25 15:00,31.675,25.132,29.850,4.10
2008-04-25 16:00,31.680,25.113,30.048,4.34
2008-04-25 17:00,31.696,25.120,30.109,4.39
2008-04-25 18:00,31.665,25.089,30.138,4.46
2008-04-25 19:00,31.664,25.085,30.165,4.49
2008-04-25 20:00,31.676,25.095,30.169,4.49
2008-04-25 21:00,31.710,25.126,30.166,4.45
2008-04-25 22:00,31.707,25.132,30.093,4.36
2008-04-25 23:00,31.715,25.136,30.120,4.39
2008-04-26 00:00,31.704,25.127,30.112,4.39
2008-04-26 01:00,31.702,25.140,29.991,4.24
2008-04-26 02:00,31.667,25.103,30.029,4.33
2008-04-26 03:00,31.660,25.084,30.144,4.47
2008-04-26 04:00,31.648,25.072,30.157,4.50
2008-04-26 05:00,31.646,25.057,30.254,4.62
2008-04-26 06:00,31.666,25.079,30.219,4.56
2008-04-26 07:00,31.705,25.113,30.232,4.53
2008-04-26 08:00,31.681,25.095,30.205,4.53
2008-04-26 09:00,31.695,25.118,30.122,4.41
2008-04-26 10:00,31.674,25.097,30.135,4.45
2008-04-26 11:00,31.701,25.122,30.131,4.41
2008-04-26 12:00,31.706,25.139,30.023,4.28
2008-04-26 13:00,31.699,25.135,30.010,4.27
2008-04-26 14:00,31.667,25.089,30.147,4.47
2008-04-26 15:00,31.684,25.106,30.138,4.44
2008-04-26 16:00,31.691,25.109,30.164,4.47
2008-04-26 17:00,31.686,25.100,30.194,4.51
2008-04-26 18:00,31.718,25.135,30.148,4.42
2008-04-26 19:00,31.660,25.069,30.255,4.61
2008-04-26 20:00,31.688,25.094,30.264,4.59
2008-04-26 21:00,31.702,25.106,30.270,4.58
2008-04-26 22:00,31.725,25.125,30.278,4.57
2008-04-26 23:00,31.725,25.129,30.251,4.53
2008-04-27 00:00,31.688,25.106,30.168,4.47
2008-04-27 01:00,31.700,25.129,30.059,4.33
2008-04-27 02:00,31.714,25.137,30.099,4.36
2008-04-27 03:00,31.694,25.113,30.156,4.45
2008-04-27 04:00,31.704,25.123,30.149,4.43
2008-04-27 05:00,31.680,25.095,30.200,4.52
2008-04-27 06:00,31.644,25.055,30.257,4.63
2008-04-27 07:00,31.640,25.048,30.281,4.66
2008-04-27 08:00,31.703,25.101,30.313,4.63
2008-04-27 09:00,31.718,25.110,30.351,4.66
2008-04-27 10:00,31.739,25.145,30.221,4.48
2008-04-27 11:00,31.730,25.140,30.200,4.47
2008-04-27 12:00,31.740,25.166,30.058,4.29
2008-04-27 13:00,31.707,25.144,29.995,4.24
2008-04-27 14:00,31.701,25.126,30.093,4.37
2008-04-27 15:00,31.684,25.103,30.156,4.46
2008-04-27 16:00,31.678,25.096,30.171,4.49
2008-04-27 17:00,31.667,25.082,30.207,4.54
2008-04-27 18:00,31.708,25.107,30.307,4.62
2008-04-27 19:00,31.716,25.111,30.326,4.64
2008-04-27 20:00,31.746,25.142,30.297,4.57
2008-04-27 21:00,31.714,25.109,30.324,4.64
2008-04-27 22:00,31.724,25.119,30.325,4.62
2008-04-27 23:00,31.728,25.122,30.325,4.62
2008-04-28 00:00,31.727,25.138,30.188,4.46
2008-04-28 01:00,31.713,25.129,30.161,4.44
2008-04-28 02:00,31.707,25.125,30.152,4.43
2008-04-28 03:00,31.714,25.140,30.076,4.34
2008-04-28 04:00,31.685,25.103,30.173,4.48
2008-04-28 05:00,31.694,25.107,30.195,4.50
2008-04-28 06:00,31.718,25.116,30.296,4.60
2008-04-28 07:00,31.718,25.105,30.391,4.71
2008-04-28 08:00,31.752,25.129,30.439,4.73
2008-04-28 09:00,31.744,25.124,30.430,4.73
2008-04-28 10:00,31.722,25.104,30.423,4.75
2008-04-28 11:00,31.757,25.136,30.424,4.71
2008-04-28 12:00,31.719,25.116,30.314,4.62
2008-04-28 13:00,31.724,25.143,30.126,4.39
2008-04-28 14:00,31.711,25.129,30.146,4.42
2008-04-28 15:00,31.714,25.130,30.161,4.44
2008-04-28 16:00,31.711,25.122,30.206,4.49
2008-04-28 17:00,31.700,25.109,30.232,4.54
2008-04-28 18:00,31.720,25.121,30.278,4.57
2008-04-28 19:00,31.678,25.074,30.345,4.70
2008-04-28 20:00,31.767,25.141,30.454,4.74
2008-04-28 21:00,31.737,25.114,30.453,4.77
2008-04-28 22:00,31.762,25.135,30.466,4.76
2008-04-28 23:00,31.783,25.154,30.466,4.73
2008-04-29 00:00,31.756,25.132,30.452,4.74
2008-04-29 01:00,31.750,25.133,30.399,4.69
2008-04-29 02:00,31.752,25.155,30.231,4.48
2008-04-29 03:00,31.723,25.122,30.296,4.59
2008-04-29 04:00,31.709,25.114,30.252,4.55
2008-04-29 05:00,31.701,25.108,30.244,4.55
2008-04-29 06:00,31.660,25.071,30.242,4.59
2008-04-29 07:00,31.637,25.046,30.279,4.66
2008-04-29 08:00,31.691,25.088,30.331,4.67
2008-04-29 09:00,31.744,25.133,30.352,4.64
2008-04-29 10:00,31.749,25.148,30.270,4.53
2008-04-29 11:00,31.740,25.141,30.265,4.54
2008-04-29 12:00,31.742,25.142,30.266,4.53
2008-04-29 13:00,31.713,25.139,30.075,4.34
2008-04-29 14:00,31.614,25.124,29.452,3.68
2008-04-29 15:00,31.594,25.112,29.399,3.63
2008-04-29 16:00,31.578,25.096,29.415,3.67
2008-04-29 17:00,31.552,25.079,29.352,3.62
2008-04-29 18:00,31.567,25.094,29.347,3.60
2008-04-29 19:00,31.601,25.124,29.353,3.57
2008-04-29 20:00,31.583,25.099,29.418,3.67
2008-04-29 21:00,31.601,25.127,29.318,3.53
2008-04-29 22:00,31.575,25.101,29.347,3.59
2008-04-29 23:00,31.594,25.120,29.327,3.55
2008-04-30 00:00,31.577,25.121,29.174,3.38
2008-04-30 01:00,31.565,25.093,29.338,3.59
2008-04-30 02:00,31.562,25.077,29.459,3.74
2008-04-30 03:00,31.558,25.069,29.497,3.79
2008-04-30 04:00,31.600,25.075,29.761,4.07
2008-04-30 05:00,31.589,25.088,29.563,3.84
2008-04-30 06:00,31.534,25.050,29.472,3.79
2008-04-30 07:00,31.592,25.099,29.491,3.75
2008-04-30 08:00,31.613,25.138,29.319,3.52
2008-04-30 09:00,31.611,25.130,29.372,3.58
2008-04-30 10:00,31.623,25.129,29.474,3.70
2008-04-30 11:00,31.611,25.098,29.655,3.93
2008-04-30 12:00,31.601,25.076,29.763,4.07
2008-04-30 13:00,31.640,25.096,29.896,4.19
2008-04-30 14:00,31.607,25.089,29.704,3.99
2008-04-30 15:00,31.580,25.087,29.504,3.78
2008-04-30 16:00,31.632,25.101,29.794,4.08
2008-04-30 17:00,31.633,25.106,29.750,4.02
2008-04-30 18:00,31.594,25.106,29.448,3.69
2008-04-30 19:00,31.643,25.113,29.775,4.04
2008-04-30 20:00,31.611,25.092,29.712,4.00
2008-04-30 21:00,31.720,25.084,30.570,4.93
2008-04-30 22:00,31.624,24.999,30.553,5.01
2008-04-30 23:00,31.671,25.038,30.583,4.99
2008-05-01 00:00,31.679,25.044,30.588,4.99
2008-05-01 01:00,31.691,25.041,30.701,5.11
2008-05-01 02:00,31.692,25.069,30.489,4.86
2008-05-01 03:00,31.743,25.092,30.666,5.02
2008-05-01 04:00,31.704,25.084,30.462,4.81
2008-05-01 05:00,31.689,25.085,30.342,4.68
2008-05-01 06:00,31.717,25.079,30.592,4.95
2008-05-01 07:00,31.724,25.086,30.582,4.93
2008-05-01 08:00,31.743,25.087,30.705,5.06
2008-05-01 09:00,31.659,25.003,30.767,5.23
2008-05-01 10:00,31.715,25.044,30.836,5.25
2008-05-01 11:00,31.726,25.053,30.848,5.25
2008-05-01 12:00,31.660,25.001,30.785,5.25
2008-05-01 13:00,31.764,25.084,30.868,5.24
2008-05-01 14:00,31.774,25.093,30.874,5.23
2008-05-01 15:00,31.763,25.088,30.840,5.20
2008-05-01 16:00,31.728,25.076,30.687,5.06
2008-05-01 17:00,31.738,25.112,30.475,4.79
2008-05-01 18:00,31.748,25.099,30.650,4.99
2008-05-01 19:00,31.751,25.094,30.714,5.07
2008-05-01 20:00,31.741,25.075,30.782,5.16
2008-05-01 21:00,31.754,25.085,30.796,5.16
2008-05-01 22:00,31.605,24.959,30.729,5.24
2008-05-01 23:00,31.765,25.082,30.895,5.27
2008-05-02 00:00,31.755,25.071,30.909,5.30
2008-05-02 01:00,31.741,25.058,30.907,5.31
2008-05-02 02:00,31.757,25.076,30.887,5.27
2008-05-02 03:00,31.794,25.105,30.926,5.27
2008-05-02 04:00,31.746,25.084,30.749,5.11
2008-05-02 05:00,31.778,25.109,30.781,5.12
2008-05-02 06:00,31.770,25.106,30.746,5.08
2008-05-02 07:00,31.745,25.095,30.663,5.01
2008-05-02 08:00,31.660,25.034,30.538,4.95
2008-05-02 09:00,31.729,25.072,30.721,5.10
2008-05-02 10:00,31.774,25.092,30.877,5.24
2008-05-02 11:00,31.770,25.088,30.888,5.25
2008-05-02 12:00,31.750,25.071,30.877,5.26
2008-05-02 13:00,31.742,25.072,30.807,5.19
2008-05-02 14:00,31.758,25.082,30.842,5.21
2008-05-02 15:00,31.778,25.097,30.873,5.23
2008-05-02 16:00,31.797,25.110,30.897,5.24
2008-05-02 17:00,31.796,25.115,30.857,5.19
2008-05-02 18:00,31.774,25.099,30.833,5.18
2008-05-02 19:00,31.766,25.101,30.760,5.11
2008-05-02 20:00,31.751,25.078,30.832,5.21
2008-05-02 21:00,31.768,25.093,30.833,5.19
2008-05-02 22:00,31.725,25.055,30.826,5.23
2008-05-02 23:00,31.590,24.937,30.784,5.32
2008-05-03 00:00,31.798,25.111,30.899,5.24
2008-05-03 01:00,31.805,25.118,30.894,5.22
2008-05-03 02:00,31.795,25.110,30.889,5.23
2008-05-03 03:00,31.802,25.115,30.898,5.23
2008-05-03 04:00,31.781,25.103,30.846,5.19
2008-05-03 05:00,31.829,25.149,30.830,5.12
2008-05-03 06:00,31.812,25.127,30.876,5.20
2008-05-03 07:00,31.806,25.124,30.856,5.18
2008-05-03 08:00,31.773,25.099,30.825,5.18
2008-05-03 09:00,31.718,25.053,30.793,5.20
2008-05-03 10:00,31.693,25.033,30.773,5.20
2008-05-03 11:00,31.823,25.137,30.880,5.19
2008-05-03 12:00,31.808,25.121,30.890,5.22
2008-05-03 13:00,31.775,25.093,30.879,5.24
2008-05-03 14:00,31.767,25.086,30.883,5.25
2008-05-03 15:00,31.785,25.101,30.885,5.24
2008-05-03 16:00,31.775,25.094,30.874,5.23
2008-05-03 17:00,31.758,25.085,30.826,5.19
2008-05-03 18:00,31.777,25.100,30.839,5.19
2008-05-03 19:00,31.776,25.100,30.834,5.18
2008-05-03 20:00,31.785,25.109,30.825,5.16
2008-05-03 21:00,31.727,25.072,30.712,5.09
2008-05-03 22:00,31.722,25.057,30.789,5.19
2008-05-03 23:00,31.700,25.036,30.796,5.22
2008-05-04 00:00,31.723,25.050,30.848,5.26
2008-05-04 01:00,31.693,25.024,30.839,5.28
2008-05-04 02:00,31.671,25.007,30.813,5.27
2008-05-04 03:00,31.715,25.044,30.840,5.26
2008-05-04 04:00,31.743,25.068,30.852,5.24
2008-05-04 05:00,31.759,25.082,30.856,5.23
2008-05-04 06:00,31.775,25.120,30.679,5.00
2008-05-04 07:00,31.731,25.064,30.795,5.18
2008-05-04 08:00,31.723,25.062,30.759,5.15
2008-05-04 09:00,31.671,25.015,30.754,5.20
2008-05-04 10:00,31.687,25.027,30.776,5.21
2008-05-04 11:00,31.683,25.021,30.793,5.23
2008-05-04 12:00,31.761,25.086,30.840,5.21
2008-05-04 13:00,31.649,24.990,30.795,5.27
2008-05-04 14:00,31.715,25.051,30.787,5.19
2008-05-04 15:00,31.619,24.969,30.748,5.24
2008-05-04 16:00,31.728,25.064,30.776,5.16
2008-05-04 17:00,31.767,25.096,30.803,5.16
2008-05-04 18:00,31.718,25.079,30.588,4.95
2008-05-04 19:00,31.681,25.036,30.664,5.08
2008-05-04 20:00,31.703,25.040,30.783,5.20
2008-05-04 21:00,31.690,25.028,30.783,5.21
2008-05-04 22:00,31.631,24.976,30.779,5.27
2008-05-04 23:00,31.612,24.960,30.768,5.28
2008-05-05 00:00,31.687,25.024,30.798,5.23
2008-05-05 01:00,31.629,24.970,30.806,5.30
2008-05-05 02:00,31.615,24.952,30.849,5.37
2008-05-05 03:00,31.585,24.925,30.843,5.40
2008-05-05 04:00,31.666,24.998,30.851,5.32
2008-05-05 05:00,31.674,25.008,30.828,5.28
2008-05-05 06:00,31.703,25.052,30.700,5.10
2008-05-05 07:00,31.728,25.069,30.734,5.11
2008-05-05 08:00,31.671,25.023,30.698,5.13
2008-05-05 09:00,31.660,25.014,30.689,5.13
2008-05-05 10:00,31.647,24.998,30.717,5.18
2008-05-05 11:00,31.640,24.985,30.773,5.25
2008-05-05 12:00,31.622,24.965,30.797,5.30
2008-05-05 13:00,31.653,24.988,30.838,5.32
2008-05-05 14:00,31.482,24.836,30.812,5.47
2008-05-05 15:00,31.479,24.837,30.788,5.44
2008-05-05 16:00,31.586,24.923,30.870,5.43
2008-05-05 17:00,31.640,24.975,30.847,5.34
2008-05-05 18:00,31.630,24.964,30.855,5.36
2008-05-05 19:00,31.683,25.026,30.761,5.19
2008-05-05 20:00,31.693,25.042,30.702,5.11
2008-05-05 21:00,31.639,24.989,30.734,5.21
2008-05-05 22:00,31.644,24.995,30.724,5.19
2008-05-05 23:00,31.615,24.961,30.778,5.29
2008-05-06 00:00,31.643,24.977,30.851,5.34
2008-05-06 01:00,31.660,24.986,30.899,5.38
2008-05-06 02:00,31.554,24.896,30.856,5.44
2008-05-06 03:00,31.582,24.908,30.953,5.53
2008-05-06 04:00,31.555,24.888,30.920,5.52
2008-05-06 05:00,31.646,24.967,30.948,5.46
2008-05-06 06:00,31.694,25.023,30.851,5.29
2008-05-06 07:00,31.680,25.029,30.712,5.14
2008-05-06 08:00,31.670,25.032,30.615,5.03
2008-05-06 09:00,31.624,24.973,30.751,5.24
2008-05-06 10:00,31.629,24.977,30.754,5.24
2008-05-06 11:00,31.600,24.946,30.795,5.32
2008-05-06 12:00,31.602,24.943,30.822,5.35
2008-05-06 13:00,31.635,24.973,30.828,5.32
2008-05-06 14:00,31.650,24.975,30.913,5.41
2008-05-06 15:00,31.654,24.974,30.950,5.45
2008-05-06 16:00,31.661,24.977,30.972,5.47
2008-05-06 17:00,31.642,24.957,30.992,5.51
2008-05-06 18:00,31.688,25.005,30.952,5.42
2008-05-06 19:00,31.673,25.004,30.857,5.32
2008-05-06 20:00,31.638,24.994,30.685,5.15
2008-05-06 21:00,31.628,24.985,30.691,5.17
2008-05-06 22:00,31.615,24.976,30.668,5.15
2008-05-06 23:00,31.631,24.976,30.778,5.27
2008-05-07 00:00,31.601,24.936,30.871,5.41
2008-05-07 01:00,31.645,24.969,30.921,5.43
2008-05-07 02:00,31.609,24.935,30.936,5.48
2008-05-07 03:00,31.616,24.936,30.972,5.52
2008-05-07 04:00,31.677,24.984,31.027,5.52
2008-05-07 05:00,31.607,24.923,31.007,5.57
2008-05-07 06:00,31.641,24.953,31.016,5.54
2008-05-07 07:00,31.645,24.977,30.863,5.36
2008-05-07 08:00,31.659,25.013,30.689,5.13
2008-05-07 09:00,31.624,25.012,30.456,4.89
2008-05-07 10:00,31.586,24.939,30.749,5.28
2008-05-07 11:00,31.612,24.960,30.768,5.28
2008-05-07 12:00,31.572,24.911,30.865,5.44
2008-05-07 13:00,31.552,24.898,30.825,5.41
2008-05-07 14:00,31.605,24.946,30.824,5.35
2008-05-07 15:00,31.596,24.919,30.966,5.53
2008-05-07 16:00,31.572,24.899,30.946,5.53
2008-05-07 17:00,31.567,24.888,30.998,5.60
2008-05-07 18:00,31.580,24.898,31.010,5.60
2008-05-07 19:00,31.649,24.965,30.981,5.49
2008-05-07 20:00,31.596,24.925,30.919,5.48
2008-05-07 21:00,31.617,24.971,30.721,5.22
2008-05-07 22:00,31.606,24.961,30.719,5.22
2008-05-07 23:00,31.621,24.972,30.736,5.23
2008-05-08 00:00,31.583,24.925,30.833,5.39
2008-05-08 01:00,31.579,24.924,30.813,5.37
2008-05-08 02:00,31.613,24.939,30.927,5.47
2008-05-08 03:00,31.573,24.899,30.954,5.54
2008-05-08 04:00,31.625,24.938,31.013,5.56
2008-05-08 05:00,31.516,24.846,30.965,5.62
2008-05-08 06:00,31.583,24.900,31.011,5.60
2008-05-08 07:00,31.616,24.931,31.014,5.57
2008-05-08 08:00,31.641,24.965,30.926,5.44
2008-05-08 09:00,31.623,24.980,30.691,5.17
2008-05-08 10:00,31.600,24.961,30.678,5.18
2008-05-08 11:00,31.592,24.943,30.760,5.29
2008-05-08 12:00,31.568,24.910,30.846,5.42
2008-05-08 13:00,31.550,24.888,30.881,5.48
2008-05-08 14:00,31.559,24.900,30.854,5.44
2008-05-08 15:00,31.517,24.851,30.937,5.58
2008-05-08 16:00,31.570,24.895,30.967,5.56
2008-05-08 17:00,31.515,24.844,30.971,5.62
2008-05-08 18:00,31.603,24.925,30.962,5.52
2008-05-08 19:00,31.584,24.910,30.946,5.52
2008-05-08 20:00,31.573,24.899,30.958,5.55
2008-05-08 21:00,31.574,24.935,30.697,5.23
2008-05-08 22:00,31.586,24.983,30.411,4.87
2008-05-08 23:00,31.556,24.909,30.768,5.34
2008-05-09 00:00,31.531,24.892,30.725,5.31
2008-05-09 01:00,31.554,24.896,30.848,5.43
2008-05-09 02:00,31.526,24.871,30.846,5.46
2008-05-09 03:00,31.573,24.911,30.864,5.43
2008-05-09 04:00,31.579,24.915,30.876,5.44
2008-05-09 05:00,31.476,24.811,30.951,5.64
2008-05-09 06:00,31.559,24.878,31.016,5.63
2008-05-09 07:00,31.521,24.845,31.002,5.66
2008-05-09 08:00,31.570,24.891,30.997,5.60
2008-05-09 09:00,31.608,24.934,30.937,5.48
2008-05-09 10:00,31.545,24.904,30.729,5.30
2008-05-09 11:00,31.546,24.915,30.649,5.20
2008-05-09 12:00,31.531,24.886,30.775,5.37
2008-05-09 13:00,31.484,24.834,30.834,5.49
2008-05-09 14:00,31.521,24.870,30.824,5.44
2008-05-09 15:00,31.537,24.885,30.818,5.42
2008-05-09 16:00,31.596,24.935,30.846,5.39
2008-05-09 17:00,31.520,24.846,30.992,5.64
2008-05-09 18:00,31.527,24.848,31.025,5.68
2008-05-09 19:00,31.529,24.847,31.041,5.69
2008-05-09 20:00,31.542,24.858,31.046,5.69
2008-05-09 21:00,31.551,24.875,30.979,5.60
2008-05-09 22:00,31.552,24.889,30.888,5.49
2008-05-09 23:00,31.564,24.921,30.733,5.29
2008-05-10 00:00,31.556,24.920,30.684,5.24
2008-05-10 01:00,31.551,24.895,30.837,5.43
2008-05-10 02:00,31.522,24.873,30.810,5.42
2008-05-10 03:00,31.492,24.848,30.784,5.42
2008-05-10 04:00,31.541,24.875,30.920,5.53
2008-05-10 05:00,31.549,24.875,30.969,5.59
2008-05-10 06:00,31.536,24.859,31.001,5.64
2008-05-10 07:00,31.482,24.807,31.016,5.71
2008-05-10 08:00,31.545,24.863,31.028,5.66
2008-05-10 09:00,31.542,24.864,31.005,5.64
2008-05-10 10:00,31.546,24.900,30.770,5.35
2008-05-10 11:00,31.556,24.945,30.497,5.01
2008-05-10 12:00,31.539,24.921,30.561,5.11
2008-05-10 13:00,31.533,24.891,30.751,5.34
2008-05-10 14:00,31.469,24.818,30.858,5.54
2008-05-10 15:00,31.482,24.820,30.930,5.61
2008-05-10 16:00,31.529,24.862,30.934,5.57
2008-05-10 17:00,31.534,24.861,30.971,5.60
2008-05-10 18:00,31.472,24.803,30.985,5.69
2008-05-10 19:00,31.389,24.728,30.978,5.77
2008-05-10 20:00,31.326,24.671,30.968,5.82
2008-05-10 21:00,31.382,24.720,30.985,5.78
2008-05-10 22:00,31.462,24.796,30.966,5.68
2008-05-10 23:00,31.466,24.800,30.966,5.67
2008-05-11 00:00,31.489,24.830,30.895,5.56
2008-05-11 01:00,31.478,24.816,30.926,5.61
2008-05-11 02:00,31.512,24.867,30.789,5.41
2008-05-11 03:00,31.496,24.834,30.916,5.58
2008-05-11 04:00,31.496,24.838,30.889,5.55
2008-05-11 05:00,31.461,24.791,31.000,5.72
2008-05-11 06:00,31.379,24.715,31.005,5.81
2008-05-11 07:00,31.113,24.477,30.966,6.05
2008-05-11 08:00,31.186,24.542,30.975,5.98
2008-05-11 09:00,31.294,24.638,31.002,5.90
2008-05-11 10:00,31.368,24.707,30.988,5.80
2008-05-11 11:00,31.428,24.766,30.957,5.70
2008-05-11 12:00,31.444,24.782,30.952,5.68
2008-05-11 13:00,31.474,24.820,30.871,5.55
2008-05-11 14:00,31.476,24.823,30.864,5.54
2008-05-11 15:00,31.485,24.834,30.844,5.50
2008-05-11 16:00,31.458,24.804,30.885,5.58
2008-05-11 17:00,31.476,24.825,30.849,5.52
2008-05-11 18:00,31.422,24.762,30.949,5.70
2008-05-11 19:00,31.311,24.658,30.969,5.84
2008-05-11 20:00,31.311,24.648,31.035,5.92
2008-05-11 21:00,31.373,24.707,31.019,5.84
2008-05-11 22:00,31.380,24.712,31.028,5.84
2008-05-11 23:00,31.399,24.740,30.958,5.73
2008-05-12 00:00,31.469,24.829,30.774,5.44
2008-05-12 01:00,31.481,24.850,30.702,5.34
2008-05-12 02:00,31.474,24.841,30.715,5.36
2008-05-12 03:00,31.466,24.828,30.757,5.42
2008-05-12 04:00,31.409,24.759,30.891,5.64
2008-05-12 05:00,31.410,24.762,30.868,5.61
2008-05-12 06:00,31.422,24.774,30.858,5.59
2008-05-12 07:00,31.385,24.722,30.994,5.79
2008-05-12 08:00,31.381,24.715,31.014,5.82
2008-05-12 09:00,31.393,24.732,30.974,5.76
2008-05-12 10:00,31.404,24.750,30.914,5.68
2008-05-12 11:00,31.448,24.802,30.833,5.53
2008-05-12 12:00,31.407,24.759,30.874,5.62
2008-05-12 13:00,31.424,24.783,30.810,5.53
2008-05-12 14:00,31.439,24.806,30.745,5.43
2008-05-12 15:00,31.451,24.827,30.664,5.32
2008-05-12 16:00,31.433,24.796,30.775,5.48
2008-05-12 17:00,31.412,24.767,30.845,5.58
2008-05-12 18:00,31.417,24.774,30.834,5.56
2008-05-12 19:00,31.398,24.752,30.859,5.61
2008-05-12 20:00,31.345,24.692,30.948,5.78
2008-05-12 21:00,31.338,24.682,30.969,5.81
2008-05-12 22:00,31.356,24.703,30.943,5.76
2008-05-12 23:00,31.354,24.707,30.897,5.71
2008-05-13 00:00,31.426,24.781,30.839,5.56
2008-05-13 01:00,31.462,24.862,30.485,5.09
2008-05-13 02:00,31.435,24.834,30.511,5.15
2008-05-13 03:00,31.423,24.824,30.501,5.16
2008-05-13 04:00,31.421,24.816,30.545,5.21
2008-05-13 05:00,31.414,24.778,30.785,5.51
2008-05-13 06:00,31.398,24.760,30.807,5.55
2008-05-13 07:00,31.410,24.777,30.762,5.49
2008-05-13 08:00,31.380,24.740,30.836,5.61
2008-05-13 09:00,31.380,24.725,30.943,5.74
2008-05-13 10:00,31.361,24.704,30.962,5.78
2008-05-13 11:00,31.344,24.695,30.919,5.74
2008-05-13 12:00,31.340,24.698,30.875,5.70
2008-05-13 13:00,31.414,24.778,30.777,5.50
2008-05-13 14:00,31.393,24.767,30.717,5.45
2008-05-13 15:00,31.426,24.800,30.699,5.39
2008-05-13 16:00,31.402,24.787,30.633,5.34
2008-05-13 17:00,31.401,24.783,30.655,5.36
2008-05-13 18:00,31.364,24.728,30.809,5.59
2008-05-13 19:00,31.381,24.754,30.735,5.48
2008-05-13 20:00,31.404,24.787,30.645,5.35
2008-05-13 21:00,31.241,24.577,31.088,6.06
2008-05-13 22:00,31.271,24.612,31.035,5.96
2008-05-13 23:00,31.300,24.650,30.952,5.83
2008-05-14 00:00,31.291,24.643,30.942,5.83
2008-05-14 01:00,31.285,24.639,30.931,5.82
2008-05-14 02:00,31.360,24.734,30.740,5.51
2008-05-14 03:00,31.363,24.754,30.613,5.36
2008-05-14 04:00,31.387,24.779,30.593,5.30
2008-05-14 05:00,31.396,24.782,30.628,5.34
2008-05-14 06:00,31.389,24.770,30.676,5.40
2008-05-14 07:00,31.324,24.699,30.757,5.57
2008-05-14 08:00,31.363,24.739,30.727,5.49
2008-05-14 09:00,31.357,24.713,30.874,5.68
2008-05-14 10:00,31.236,24.592,30.951,5.90
2008-05-14 11:00,31.281,24.641,30.890,5.78
2008-05-14 12:00,31.268,24.628,30.901,5.80
2008-05-14 13:00,31.325,24.707,30.705,5.51
2008-05-14 14:00,31.367,24.754,30.645,5.39
2008-05-14 15:00,31.375,24.763,30.627,5.36
2008-05-14 16:00,31.378,24.765,30.632,5.36
2008-05-14 17:00,31.398,24.795,30.549,5.24
2008-05-14 18:00,31.384,24.773,30.617,5.34
2008-05-14 19:00,31.307,24.674,30.827,5.67
2008-05-14 20:00,31.335,24.708,30.760,5.56
2008-05-14 21:00,31.363,24.750,30.646,5.39
2008-05-14 22:00,31.287,24.640,30.934,5.82
2008-05-14 23:00,31.280,24.642,30.879,5.77
2008-05-15 00:00,31.311,24.680,30.811,5.65
2008-05-15 01:00,31.318,24.700,30.710,5.52
2008-05-15 02:00,31.341,24.725,30.682,5.46
2008-05-15 03:00,31.362,24.760,30.564,5.30
2008-05-15 04:00,31.400,24.804,30.495,5.17
2008-05-15 05:00,31.363,24.766,30.524,5.25
2008-05-15 06:00,31.357,24.754,30.581,5.32
2008-05-15 07:00,31.357,24.744,30.644,5.40
2008-05-15 08:00,31.301,24.679,30.750,5.59
2008-05-15 09:00,31.342,24.723,30.701,5.48
2008-05-15 10:00,31.332,24.719,30.665,5.45